Perryton, TX

7:17 AM CDT on October 21, 2017 (GMT -0500)
Perryton Ochiltree County

Weather History for KPYX - May, 2012

Change the Weather History Date:

Friday, May 18, 2012

  Actual Average Record
Temperature  
Mean Temperature 76 °F -  
Max Temperature 91 °F 80 °F 102 °F (2013)
Min Temperature 60 °F 50 °F 37 °F (1976)
Cooling Degree Days 10    
Growing Degree Days 26 (Base 50)    
Moisture  
Dew Point 45 °F    
Average Humidity 33    
Maximum Humidity 48    
Minimum Humidity 21    
Precipitation  
Precipitation 0.00 in - - ()
Sea Level Pressure  
Sea Level Pressure 29.73 in    
Wind  
Wind Speed 16 mph (SSE)    
Max Wind Speed 30 mph    
Max Gust Speed 41 mph    
Visibility 10 miles    
Events      
Averages and records for this station are not official NWS values.
T = Trace of Precipitation, MM = Missing Value Source: NWS Daily Summary

Daily Weather History Graph

Daily Weather History Graph

Search for Another Location

Airport or City:

Trip Planner

Search our weather history database for the weather conditions in past years. The results will help you decide how hot, cold, wet, or windy it might be!

Date:

Astronomy

May. 18, 2012 Rise Set
Actual Time 6:33 AM CDT 8:45 PM CDT
Civil Twilight 6:04 AM CDT 9:14 PM CDT
Nautical Twilight 5:29 AM CDT 9:50 PM CDT
Astronomical Twilight 4:50 AM CDT 10:29 PM CDT
Moon 5:00 AM CDT (5/18) 6:58 PM CDT (5/18)
Length of Visible Light 15h 10m
Length of Day
14h 12m
Waning Crescent, 5% of the Moon is Illuminated
May 18
Waning Crescent
May 20
New
May 28
First Quarter
Jun 4
Full
Jun 11
Last Quarter

Hourly Weather History & Observations

Time (CDT) Temp. Dew Point Humidity Pressure Visibility Wind Dir Wind Speed Gust Speed Precip Events Conditions
12:15 AM 73.4 °F 35.6 °F 25% 29.82 in 10.0 mi SSE 12.7 mph - N/A   Clear
12:35 AM 73.4 °F 35.6 °F 25% 29.82 in 10.0 mi SSE 13.8 mph - N/A   Clear
12:55 AM 71.6 °F 35.6 °F 27% 29.81 in 10.0 mi SSE 15.0 mph - N/A   Clear
1:15 AM 71.6 °F 35.6 °F 27% 29.81 in 10.0 mi SSE 11.5 mph - N/A   Clear
1:35 AM 69.8 °F 35.6 °F 28% 29.80 in 10.0 mi SSE 12.7 mph - N/A   Clear
1:55 AM 68.0 °F 35.6 °F 30% 29.80 in 10.0 mi SSE 11.5 mph - N/A   Clear
2:15 AM 66.2 °F 35.6 °F 32% 29.79 in 10.0 mi SSE 9.2 mph - N/A   Clear
2:35 AM 62.6 °F 35.6 °F 37% 29.79 in 10.0 mi SSE 11.5 mph - N/A   Clear
2:55 AM 62.6 °F 35.6 °F 37% 29.79 in 10.0 mi SSE 11.5 mph - N/A   Clear
3:15 AM 62.6 °F 37.4 °F 39% 29.78 in 10.0 mi SSE 11.5 mph - N/A   Clear
3:35 AM 62.6 °F 37.4 °F 39% 29.78 in 10.0 mi South 11.5 mph - N/A   Clear
3:55 AM 64.4 °F 37.4 °F 37% 29.78 in 10.0 mi South 12.7 mph - N/A   Clear
4:15 AM 64.4 °F 37.4 °F 37% 29.79 in 10.0 mi SSE 10.4 mph - N/A   Clear
4:35 AM 62.6 °F 39.2 °F 42% 29.79 in 10.0 mi South 8.1 mph - N/A   Clear
4:55 AM 60.8 °F 39.2 °F 45% 29.79 in 10.0 mi SSE 10.4 mph - N/A   Clear
5:35 AM 62.6 °F 41.0 °F 45% 29.78 in 10.0 mi South 10.4 mph - N/A   Clear
5:55 AM 62.6 °F 41.0 °F 45% 29.78 in 10.0 mi South 10.4 mph - N/A   Clear
6:15 AM 62.6 °F 41.0 °F 45% 29.78 in 10.0 mi South 10.4 mph - N/A   Clear
6:35 AM 60.8 °F 41.0 °F 48% 29.77 in 10.0 mi South 10.4 mph - N/A   Clear
6:55 AM 62.6 °F 41.0 °F 45% 29.78 in 10.0 mi South 9.2 mph - N/A   Clear
7:15 AM 62.6 °F 42.8 °F 48% 29.78 in 10.0 mi South 9.2 mph - N/A   Clear
7:35 AM 64.4 °F 42.8 °F 45% 29.78 in 10.0 mi South 11.5 mph - N/A   Clear
7:55 AM 64.4 °F 42.8 °F 45% 29.78 in 10.0 mi SSE 12.7 mph - N/A   Clear
8:15 AM 66.2 °F 42.8 °F 43% 29.78 in 10.0 mi South 15.0 mph - N/A   Clear
8:35 AM 68.0 °F 44.6 °F 43% 29.79 in 10.0 mi South 16.1 mph 20.7 mph N/A   Clear
8:55 AM 69.8 °F 44.6 °F 40% 29.79 in 10.0 mi South 17.3 mph 23.0 mph N/A   Clear
9:15 AM 69.8 °F 46.4 °F 43% 29.78 in 10.0 mi South 19.6 mph 27.6 mph N/A   Clear
9:35 AM 71.6 °F 46.4 °F 41% 29.78 in 10.0 mi South 21.9 mph 27.6 mph N/A   Clear
9:55 AM 73.4 °F 46.4 °F 38% 29.77 in 10.0 mi South 20.7 mph 28.8 mph N/A   Clear
10:15 AM 75.2 °F 46.4 °F 36% 29.76 in 10.0 mi South 18.4 mph 27.6 mph N/A   Clear
10:35 AM 77.0 °F 46.4 °F 34% 29.76 in 10.0 mi South 17.3 mph 26.5 mph N/A   Clear
10:55 AM 77.0 °F 48.2 °F 36% 29.76 in 10.0 mi South 21.9 mph 27.6 mph N/A   Clear
11:15 AM 78.8 °F 48.2 °F 34% 29.75 in 10.0 mi South 23.0 mph 28.8 mph N/A   Clear
11:35 AM 80.6 °F 48.2 °F 32% 29.75 in 10.0 mi South 20.7 mph 28.8 mph N/A   Clear
11:55 AM 80.6 °F 48.2 °F 32% 29.75 in 10.0 mi South 19.6 mph 28.8 mph N/A   Clear
12:15 PM 82.4 °F 50.0 °F 32% 29.74 in 10.0 mi South 24.2 mph 32.2 mph N/A   Clear
12:35 PM 84.2 °F 48.2 °F 29% 29.73 in 10.0 mi South 24.2 mph 34.5 mph N/A   Clear
12:55 PM 84.2 °F 48.2 °F 29% 29.73 in 10.0 mi South 23.0 mph 31.1 mph N/A   Clear
1:15 PM 86.0 °F 48.2 °F 27% 29.73 in 10.0 mi South 21.9 mph 31.1 mph N/A   Clear
1:35 PM 86.0 °F 48.2 °F 27% 29.73 in 10.0 mi South 24.2 mph 33.4 mph N/A   Clear
1:55 PM 87.8 °F 48.2 °F 25% 29.71 in 10.0 mi South 25.3 mph 32.2 mph N/A   Clear
2:15 PM 87.8 °F 48.2 °F 25% 29.70 in 10.0 mi South 23.0 mph 35.7 mph N/A   Clear
2:35 PM 89.6 °F 48.2 °F 24% 29.69 in 10.0 mi South 26.5 mph 31.1 mph N/A   Clear
2:55 PM 89.6 °F 50.0 °F 26% 29.69 in 10.0 mi South 23.0 mph 33.4 mph N/A   Clear
3:15 PM 91.4 °F 48.2 °F 23% 29.68 in 10.0 mi South 24.2 mph 32.2 mph N/A   Clear
3:35 PM 89.6 °F 50.0 °F 26% 29.68 in 10.0 mi South 24.2 mph 32.2 mph N/A   Clear
3:55 PM 91.4 °F 48.2 °F 23% 29.67 in 10.0 mi South 26.5 mph 33.4 mph N/A   Clear
4:35 PM 91.4 °F 46.4 °F 21% 29.66 in 10.0 mi South 23.0 mph 33.4 mph N/A   Clear
4:55 PM 91.4 °F 48.2 °F 23% 29.64 in 10.0 mi SSE 25.3 mph 35.7 mph N/A   Clear
5:15 PM 91.4 °F 46.4 °F 21% 29.64 in 10.0 mi SSE 27.6 mph 35.7 mph N/A   Clear
5:35 PM 91.4 °F 46.4 °F 21% 29.63 in 10.0 mi SSE 26.5 mph 35.7 mph N/A   Clear
5:55 PM 91.4 °F 46.4 °F 21% 29.63 in 10.0 mi SSE 27.6 mph 36.8 mph N/A   Clear
6:15 PM 89.6 °F 46.4 °F 22% 29.63 in 10.0 mi SSE 26.5 mph 34.5 mph N/A   Clear
6:35 PM 89.6 °F 46.4 °F 22% 29.62 in 10.0 mi SSE 29.9 mph 39.1 mph N/A   Clear
6:55 PM 89.6 °F 46.4 °F 22% 29.62 in 10.0 mi SSE 27.6 mph 41.4 mph N/A   Clear
7:15 PM 89.6 °F 46.4 °F 22% 29.62 in 10.0 mi SSE 27.6 mph 36.8 mph N/A   Clear
7:35 PM 87.8 °F 46.4 °F 24% 29.62 in 10.0 mi South 24.2 mph 32.2 mph N/A   Clear
7:55 PM 86.0 °F 48.2 °F 27% 29.63 in 10.0 mi SSE 25.3 mph 33.4 mph N/A   Clear
8:15 PM 84.2 °F 48.2 °F 29% 29.63 in 10.0 mi SSE 20.7 mph 32.2 mph N/A   Clear
8:35 PM 82.4 °F 50.0 °F 32% 29.64 in 10.0 mi SSE 18.4 mph 27.6 mph N/A   Clear
8:55 PM 82.4 °F 50.0 °F 32% 29.64 in 10.0 mi SSE 18.4 mph 26.5 mph N/A   Clear
9:15 PM 80.6 °F 51.8 °F 37% 29.65 in 10.0 mi SSE 17.3 mph 24.2 mph N/A   Clear
9:35 PM 80.6 °F 51.8 °F 37% 29.65 in 10.0 mi SSE 19.6 mph 28.8 mph N/A   Clear
9:55 PM 80.6 °F 51.8 °F 37% 29.66 in 10.0 mi SSE 25.3 mph 31.1 mph N/A   Clear
10:15 PM 80.6 °F 51.8 °F 37% 29.66 in 10.0 mi SSE 24.2 mph 33.4 mph N/A   Clear
10:35 PM 78.8 °F 51.8 °F 39% 29.67 in 10.0 mi SSE 24.2 mph 31.1 mph N/A   Clear
10:55 PM 78.8 °F 51.8 °F 39% 29.68 in 10.0 mi SSE 26.5 mph 34.5 mph N/A   Clear
11:15 PM 78.8 °F 51.8 °F 39% 29.69 in 10.0 mi SSE 23.0 mph 31.1 mph N/A   Clear
11:35 PM 77.0 °F 51.8 °F 41% 29.69 in 10.0 mi South 18.4 mph 29.9 mph N/A   Clear
11:55 PM 77.0 °F 51.8 °F 41% 29.70 in 10.0 mi South 21.9 mph 28.8 mph N/A   Clear